Regional Weather Roundup
Issued by NWS

Home | Current Version | Previous Version | Text Only | Print | Product List | Glossary Off
Versions: 1 2 3 4 5 6 7 8 9 10 11 12 13 14 15 16 17 18 19 20 21 22 23 24 25 26 27 28 29 30 31 32 33 34 35 36 37 38 39 40 41 42 43 44 45 46 47 48 49 50

549
ASUS45 KSLC 241510
RWRUT

UTAH REGIONAL WEATHER ROUNDUP
NATIONAL WEATHER SERVICE SALT LAKE CITY UT
800 AM MST TUE JAN 24 2017

UTZ001>011-023>025-241600-

NORTHERN UTAH

CITY           SKY/WX    TMP DP  RH WIND       PRES   REMARKS
BRIGHAM CITY     N/A     27  25  89 N3        29.75R
DUGWAY         PTCLDY    16  14  93 E6        29.79R WCI   7
HILL AFB       FLURRIES  25  20  79 S3        29.73R
LOGAN          CLOUDY   N/A N/A N/A N8        29.72R
OGDEN          CLOUDY    26  20  77 S6        29.73R WCI  19
SALT LAKE CITY CLOUDY    30  21  69 CALM      29.75R
TOOELE VALLEY  CLOUDY    28  23  80 SE5       29.76R WCI  23
WENDOVER       PTCLDY    19   5  53 NW5       29.76R WCI  13
HEBER CITY     SNOW      12  10  92 CALM      29.68R VSB<1/4
WEST JORDAN    CLOUDY    27  26  95 CALM      29.75R

$$

UTZ011>015-024>027-241600-

CENTRAL/NORTHEAST UTAH

CITY           SKY/WX    TMP DP  RH WIND       PRES   REMARKS
PROVO AIRPORT  CLOUDY    27  23  86 CALM      29.76R
MOAB/CANYONLAN CLEAR     29  26  89 W7        29.64R WCI  22
DELTA          MOCLDY     9   9 100 E5        29.76R WCI   0
PRICE          PTCLDY    22  13  68 NW15      29.64R WCI   9
RICHFIELD      MOCLDY    27  21  80 NE5       29.75  WCI  21
ROOSEVELT      CLOUDY    19  18  93 CALM      29.67R
VERNAL         FOG       20  18  92 SW3       29.64R VSB<1/4

$$

UTZ013>016-019>022-027-241600-

SOUTHERN UTAH

CITY           SKY/WX    TMP DP  RH WIND       PRES   REMARKS
BRYCE CANYON   PTCLDY     8   4  83 CALM      29.66R
CEDAR CITY     MOCLDY    14  10  84 SE7       29.73R WCI   4
MILFORD        FLURRIES  22  19  89 SW6       29.75R WCI  14
ST GEORGE      MOSUNNY   36  19  51 W6        29.84R WCI  31
HANKSVILLE     CLEAR     23  21  93 MISG      29.69R
KANAB            N/A     25  25 100 CALM      29.80
BLANDING       MOCLDY    24  24 100 W5        29.70R WCI  18

$$

REGIONAL REPORTS     COLORADO/ARIZONA

CITY           SKY/WX    TMP DP  RH WIND       PRES   REMARKS
CRAIG, CO      LGT SNOW  23  19  85 CALM      29.63R FOG
GRAND JUNCTION PTCLDY    28  27  96 CALM      29.63R
RIFLE, CO      CLOUDY    26  24  92 CALM      29.61R
MONTROSE, CO   LGT SNOW  27  26  96 CALM      29.63R FOG
CORTEZ, CO     LGT SNOW  27  26  96 S14       29.64S FOG     WCI  16
COLORADO CITY  CLOUDY    30  28  93 NW5       29.79R WCI  25
PAGE, AZ       CLOUDY    34  24  67 CALM      29.71R
GRAND CANYON   NOT AVBL
KINGMAN, AZ    CLOUDY    34  29  82 W12       29.85R WCI  25
FLAGSTAFF, AZ  FLURRIES  20  17  88 W6        29.74R WCI  12

$$

REGIONAL REPORTS    NEVADA/IDAHO/WYOMING

CITY           SKY/WX    TMP DP  RH WIND       PRES   REMARKS
LAS VEGAS, NV  PTCLDY    38  28  67 S5        29.86R WCI  34
ELY, NY        CLOUDY     1  -3  83 S12       29.78R WCI -16
ELKO, NV       CLOUDY    24  17  74 SW10      29.80R WCI  14
POCATELLO, ID  LGT SNOW  24  22  91 SW8       29.74R FOG     WCI  15
BURLEY, ID     LGT SNOW  26  22  84 W13       29.73R FOG     WCI  15
FORT BRIDGER,  CLOUDY    19  18  96 W17       29.64R WCI   4
EVANSTON, WY   CLOUDY    17  12  80 SW18      29.62R WCI   1
ROCK SPRINGS,  SNOW      18  14  84 E8        29.59S VSB 1/4 WCI   8

$$




USA.gov is the U.S. government's official web portal to all federal, state and local government web resources and services.